This demonstration page uses our WeatherBlox Daily Observations layout. Learn more.

Left ArrowRight Arrow

41.55636, -103.73856

Hourly Observations for February 13, 2015

Temp ( °F °C ) Dew Point ( °F °C ) Humidity (%) Winds ( mph kmh ) Pressure ( in mb ) Visibility ( mi km ) Precip ( " mm )
12:53 am 00:53 Clear 33 0.6 26 -3.3 75 75 NW 7 11 30.24 1024 10 16.0934 0 0
1:53 am 01:53 Clear 30 -1.1 25 -3.9 82 82 NW 5 7 30.23 1024 10 16.0934 0 0
2:53 am 02:53 Clear 30 -1.1 25 -3.9 82 82 NW 7 11 30.2 1023 10 16.0934 0 0
3:53 am 03:53 Clear 33 0.6 26 -3.3 75 75 NW 8 13 30.19 1023 10 16.0934 0 0
4:53 am 04:53 Mostly Cloudy 34 1.1 27 -2.8 76 76 NNW 6 9 30.21 1023 10 16.0934 0 0
5:53 am 05:53 Cloudy 34 1.1 27 -2.8 76 76 NNW 7 11 30.24 1024 10 16.0934 0 0
6:53 am 06:53 Cloudy 35 1.7 28 -2.2 76 76 WNW 3 6 30.27 1025 10 16.0934 0 0
7:53 am 07:53 Cloudy 36 2.2 29 -1.7 76 76 N 3 6 30.29 1026 10 16.0934 0 0
8:53 am 08:53 Cloudy 39 3.9 30 -1.1 70 70 WNW 5 7 30.29 1026 10 16.0934 0 0
9:53 am 09:53 Partly Cloudy 48 8.9 31 -0.6 52 52 W 7 11 30.27 1025 10 16.0934 0 0
10:53 am 10:53 Sunny 55 12.8 31 -0.6 40 40 WNW 13 20 30.24 1024 10 16.0934 0 0
11:53 am 11:53 Sunny 59 15 31 -0.6 35 35 NW 13 20 30.22 1023 10 16.0934 0 0
12:53 pm 12:53 Sunny 62 16.7 30 -1.1 30 30 NW 17 28 30.18 1022 10 16.0934 0 0
1:53 pm 13:53 Sunny 64 17.8 29 -1.7 27 27 NNW 15 24 30.15 1021 10 16.0934 0 0
2:53 pm 14:53 Mostly Sunny 63 17.2 29 -1.7 28 28 NW 15 24 30.15 1021 10 16.0934 0 0
3:53 pm 15:53 Sunny 63 17.2 29 -1.7 28 28 NW 12 19 30.14 1021 10 16.0934 0 0
4:53 pm 16:53 Sunny 59 15 31 -0.6 35 35 NNW 7 11 30.15 1021 10 16.0934 0 0
5:53 pm 17:53 Clear 48 8.9 31 -0.6 52 52 N 6 9 30.19 1022 10 16.0934 0 0
6:53 pm 18:53 Clear 44 6.7 30 -1.1 58 58 WSW 3 6 30.19 1023 10 16.0934 0 0
7:53 pm 19:53 Clear 39 3.9 30 -1.1 70 70 NNE 3 6 30.21 1023 10 16.0934 0 0
8:53 pm 20:53 Clear 38 3.3 28 -2.2 68 68 Calm 30.21 1023 10 16.0934 0 0
9:53 pm 21:53 Clear 32 0 28 -2.2 85 85 NNW 5 7 30.21 1023 10 16.0934 0 0
10:53 pm 22:53 Clear 32 0 27 -2.8 82 82 Calm 30.19 1022 10 16.0934 0 0
11:53 pm 23:53 Clear 31 -0.6 27 -2.8 85 85 NW 6 9 30.17 1022 10 16.0934 0 0

Powered by AerisWeather